Wautoma, WI

1:48 AM CDT on August 20, 2017 (GMT -0500)
Wautoma

Weather History for KY50 - December, 2013

Change the Weather History Date:

Wednesday, December 18, 2013

  Actual Average (KPCZ) Record (KPCZ)
Temperature  
Mean Temperature 16 °F -  
Max Temperature 32 °F 28 °F 42 °F (1962)
Min Temperature 1 °F 13 °F -20 °F (1983)
Degree Days  
Heating Degree Days 48    
Moisture  
Dew Point -    
Average Humidity    
Maximum Humidity    
Minimum Humidity    
Precipitation  
Precipitation 0.00 in - - ()
Sea Level Pressure  
Sea Level Pressure 29.92 in    
Wind  
Wind Speed 7 mph (SSW)    
Max Wind Speed 13 mph    
Max Gust Speed -    
Visibility 10 miles    
Events      
Averages and records for this station are not official NWS values.
T = Trace of Precipitation, MM = Missing Value Source: NWS Daily Summary

Daily Weather History Graph

Daily Weather History Graph

Search for Another Location

Airport or City:

Trip Planner

Search our weather history database for the weather conditions in past years. The results will help you decide how hot, cold, wet, or windy it might be!

Date:

Astronomy

Dec. 18, 2013 Rise Set
Actual Time 7:27 AM CST 4:20 PM CST
Civil Twilight 6:54 AM CST 4:53 PM CST
Nautical Twilight 6:17 AM CST 5:30 PM CST
Astronomical Twilight 5:42 AM CST 6:05 PM CST
Moon 5:55 PM CST (12/18) 8:04 AM CST (12/18)
Length of Visible Light 9h 59m
Length of Day
8h 53m
Full, 98% of the Moon is Illuminated
Dec 18
Full
Dec 25
Last Quarter
Jan 1
New
Jan 7
First Quarter
Jan 15
Full

Hourly Weather History & Observations

Time (CST) Temp. Windchill Dew Point Humidity Pressure Visibility Wind Dir Wind Speed Gust Speed Precip Events Conditions
12:56 AM 14.0 °F 0.5 °F - N/A% 30.07 in 10.0 mi WNW 11.5 mph - 0.00 in   Overcast
1:12 AM 12.2 °F -2.5 °F - N/A% 30.04 in 10.0 mi WNW 12.7 mph - N/A   Scattered Clouds
1:56 AM 11.1 °F -1.6 °F - N/A% 30.09 in 10.0 mi West 9.2 mph - N/A   Clear
2:56 AM 9.1 °F -1.9 °F - N/A% 30.10 in 10.0 mi West 6.9 mph - N/A   Clear
3:56 AM 6.1 °F -5.6 °F - N/A% 30.10 in 10.0 mi West 6.9 mph - N/A   Clear
4:56 AM 4.1 °F -5.1 °F - N/A% 30.10 in 10.0 mi WSW 4.6 mph - N/A   Clear
5:56 AM 5.0 °F - - N/A% 30.10 in 10.0 mi Calm Calm - N/A   Clear
6:56 AM 1.0 °F - - N/A% 30.09 in 10.0 mi Calm Calm - N/A   Mostly Cloudy
7:56 AM 7.2 °F 0.3 °F - N/A% 30.08 in 10.0 mi SE 3.5 mph - N/A   Overcast
8:56 AM 10.0 °F 3.6 °F - N/A% 30.06 in 10.0 mi SE 3.5 mph - N/A   Overcast
9:56 AM 13.1 °F 4.0 °F - N/A% 30.04 in 10.0 mi SE 5.8 mph - N/A   Clear
10:56 AM 16.2 °F 6.5 °F - N/A% 29.98 in 10.0 mi SE 6.9 mph - N/A   Scattered Clouds
11:56 AM 22.1 °F 12.8 °F - N/A% 29.92 in 10.0 mi SE 8.1 mph - N/A   Clear
12:56 PM 26.1 °F 17.6 °F - N/A% 29.85 in 10.0 mi South 8.1 mph - N/A   Clear
1:56 PM 31.1 °F 23.1 °F - N/A% 29.81 in 10.0 mi South 9.2 mph - N/A   Clear
2:56 PM 31.1 °F 23.7 °F - N/A% 29.78 in 10.0 mi South 8.1 mph - N/A   Clear
3:56 PM 32.0 °F 24.2 °F - N/A% 29.75 in 10.0 mi South 9.2 mph - N/A   Clear
4:56 PM 30.0 °F 22.4 °F - N/A% 29.74 in 10.0 mi South 8.1 mph - N/A   Clear
5:56 PM 27.1 °F 23.2 °F - N/A% 29.74 in 10.0 mi Variable 3.5 mph - N/A   Clear
6:56 PM 19.0 °F 12.3 °F - N/A% 29.75 in 10.0 mi SSW 4.6 mph - N/A   Clear
7:56 PM 19.0 °F 11.1 °F - N/A% 29.74 in 10.0 mi SSW 5.8 mph - N/A   Clear
8:56 PM 25.2 °F 18.3 °F - N/A% 29.73 in 10.0 mi SW 5.8 mph - N/A   Clear
9:56 PM 20.1 °F 15.2 °F - N/A% 29.75 in 10.0 mi WSW 3.5 mph - N/A   Clear
10:56 PM 17.1 °F - - N/A% 29.76 in 10.0 mi Calm Calm - N/A   Clear
11:56 PM 17.1 °F - - N/A% 29.78 in 10.0 mi Calm Calm - N/A   Clear